CW1074 Weather Reports


time (UTC)temp
F
wind
direction
speed
knots
gust
knots
rain 1hr
in
rain 24hr
in
rain mn
in
humidity
%
barometer
mb
20260902195018 53 0.0 0.0 0.00 0.01 0.00 73 1011.7
20260902194037 54 0.0 0.0 0.00 0.01 0.00 75 1011.6
20260902193017 53 0.0 0.0 0.00 0.01 0.00 79 1011.6
20260902192017 51 0.0 0.0 0.00 0.01 0.00 83 1011.5
20260902191038 50 0.0 0.0 0.00 0.01 0.00 84 1011.4
20260902190017 49 0.0 0.0 0.00 0.01 0.00 86 1011.4
20260902185017 48 0.0 0.0 0.00 0.01 0.00 87 1011.2
20260902184017 47 0.0 0.0 0.00 0.01 0.00 90 1011.2
20260902183017 46 0.0 0.0 0.00 0.01 0.00 91 1011.0
20260902182017 46 0.0 0.0 0.00 0.01 0.00 94 1010.9
20260902181018 45 0.0 0.0 0.00 0.01 0.00 95 1010.7
20260902180018 44 0.0 0.0 0.00 0.01 0.00 95 1010.5
20260902175017 44 0.0 0.0 0.00 0.01 0.00 95 1010.5
20260902174017 42 0.0 0.0 0.00 0.01 0.00 95 1010.3
20260902173017 41 0.0 0.0 0.00 0.01 0.00 94 1010.2
20260902172016 39 0.0 0.0 0.00 0.01 0.00 94 1010.1
20260902171017 38 0.0 0.0 0.00 0.01 0.00 94 1010.1
20260902170018 37 0.0 0.0 0.00 0.01 0.00 94 1009.9
20260902165016 36 0.0 0.0 0.00 0.01 0.00 94 1009.8
20260902164017 35 0.0 0.0 0.00 0.01 0.00 94 1009.6
20260902163036 35 0.0 0.0 0.00 0.01 0.00 94 1009.7
20260902162016 34 0.0 0.0 0.00 0.01 0.00 93 1009.6
20260902161016 34 0.0 0.0 0.00 0.01 0.00 93 1009.4
20260902160016 33 0.0 0.0 0.00 0.01 0.00 93 1009.2
20260902155016 33 0.0 0.0 0.00 0.01 0.00 93 1009.2
20260902154036 33 0.0 0.0 0.00 0.01 0.00 93 1009.0
20260902153016 33 0.0 0.0 0.00 0.01 0.00 93 1009.1
20260902152016 33 0.0 0.0 0.00 0.01 0.00 93 1009.1
20260902151016 34 0.0 0.0 0.00 0.01 0.00 93 1008.9
20260902150015 34 0.0 0.0 0.00 0.01 0.00 93 1008.9
20260902145016 34 0.0 0.0 0.00 0.01 0.00 93 1008.9
20260902144015 34 0.0 0.0 0.00 0.01 0.00 93 1008.8
20260902143016 34 0.0 0.0 0.00 0.01 0.00 99 1008.9
20260902142015 34 0.0 0.0 0.00 0.01 0.00 93 1008.9
20260902141015 34 0.0 0.0 0.00 0.01 0.00 93 1008.7
20260902140015 34 0.0 0.0 0.00 0.01 0.00 93 1008.5
20260902135016 34 0.0 0.0 0.00 0.01 0.00 93 1008.6
20260902134015 34 0.0 0.0 0.00 0.01 0.00 92 1008.5
20260902133015 35 0.0 0.0 0.00 0.01 0.00 93 1008.3
20260902132015 35 0.0 0.0 0.00 0.01 0.00 92 1008.2
20260902131016 36 0.0 0.0 0.00 0.01 0.00 93 1008.2
20260902130015 36 0.0 0.0 0.00 0.01 0.00 93 1008.2
20260902125035 36 0.0 0.0 0.00 0.01 0.00 93 1007.8
20260902124017 36 0.0 0.0 0.00 0.01 0.00 92 1007.7
20260902123017 36 0.0 0.0 0.00 0.01 0.00 93 1007.7
20260902122017 36 0.0 0.0 0.00 0.01 0.00 93 1007.6
20260902121017 36 0.0 0.0 0.00 0.01 0.00 93 1007.7
20260902120018 36 0.0 0.0 0.00 0.01 0.00 93 1007.6
20260902115017 36 0.0 0.0 0.00 0.01 0.00 93 1007.6
20260902114017 36 0.0 0.0 0.00 0.01 0.00 92 1007.6
20260902113017 36 0.0 0.0 0.00 0.01 0.00 92 1007.5
20260902112037 36 0.0 0.0 0.00 0.01 0.00 92 1007.5
20260902111017 35 0.0 0.0 0.00 0.01 0.00 92 1007.5
20260902110017 36 0.0 0.0 0.00 0.01 0.00 92 1007.6
20260902105017 36 0.0 0.0 0.00 0.01 0.00 92 1007.6
20260902104017 36 0.0 0.0 0.00 0.01 0.00 92 1007.6
20260902103017 36 0.0 0.0 0.00 0.01 0.00 92 1007.6
20260902102017 36 0.0 0.0 0.00 0.01 0.00 92 1007.6
20260902101017 36 0.0 0.0 0.00 0.01 0.00 92 1007.6
20260902100017 36 0.0 0.0 0.00 0.01 0.00 91 1007.6
20260902095017 36 0.0 0.0 0.00 0.01 0.00 91 1007.6
20260902094017 37 0.0 0.0 0.00 0.01 0.00 91 1007.6
20260902093016 37 0.0 0.0 0.00 0.01 0.00 91 1007.5
20260902092017 37 0.0 0.0 0.00 0.01 0.00 91 1007.5
20260902091016 38 0.0 0.0 0.00 0.01 0.00 91 1007.5
20260902090017 38 0.0 0.0 0.00 0.01 0.00 91 1007.5
20260902085017 38 0.0 0.0 0.00 0.01 0.00 91 1007.4
20260902084016 38 0.0 0.0 0.00 0.01 0.00 91 1007.5
20260902083036 39 0.0 0.0 0.00 0.01 0.00 91 1007.4
20260902082017 39 0.0 0.0 0.00 0.01 0.00 91 1007.4
20260902081036 39 0.0 0.0 0.00 0.01 0.00 90 1007.3
20260902080016 40 0.0 0.0 0.00 0.01 0.01 90 1007.3
20260902075017 40 0.0 0.0 0.00 0.01 0.01 90 1007.3
20260902074017 41 0.0 0.0 0.00 0.01 0.01 90 1007.4
20260902073017 41 0.0 0.0 0.00 0.01 0.01 90 1007.4
20260902072017 41 0.0 0.0 0.00 0.01 0.01 90 1007.3
20260902071017 42 0.0 0.0 0.00 0.01 0.01 90 1007.3
20260902070017 42 0.0 0.0 0.00 0.01 0.01 90 1007.2
20260902065017 42 0.0 0.0 0.00 0.01 0.01 90 1007.2
20260902064017 43 0.0 0.0 0.00 0.01 0.01 89 1007.1
20260902063016 43 0.0 0.0 0.00 0.01 0.01 89 1007.0
20260902062016 44 0.0 0.0 0.00 0.01 0.01 89 1007.0
20260902061017 44 0.0 0.0 0.00 0.01 0.01 89 1006.9
20260902060017 45 0.0 0.0 0.00 0.01 0.01 88 1006.8
20260902055018 46 0.0 0.0 0.00 0.01 0.01 87 1006.8
20260902054016 47 0.0 0.0 0.00 0.01 0.01 87 1006.8
20260902053016 48 0.0 0.0 0.00 0.01 0.01 86 1006.7
20260902052016 48 0.0 0.0 0.00 0.01 0.01 86 1006.7
20260902051016 49 0.0 0.0 0.00 0.01 0.01 85 1006.6
20260902050036 50 0.0 0.0 0.00 0.01 0.01 84 1006.5
20260902045017 51 0.0 0.0 0.00 0.01 0.01 84 1006.5
20260902044036 51 0.0 0.0 0.00 0.01 0.01 83 1006.5
20260902043037 52 0.0 0.0 0.01 0.01 0.01 82 1006.4
20260902042016 53 0.0 0.0 0.01 0.01 0.01 81 1006.6
20260902041016 53 0.0 0.0 0.01 0.01 0.01 80 1006.6
20260902040057 54 0.0 0.0 0.01 0.01 0.01 78 1006.6
20260902035016 54 0.0 0.0 0.01 0.01 0.01 75 1006.6
20260902034016 54 0.0 0.0 0.01 0.01 0.01 74 1006.5
20260902033016 54 0.0 0.0 0.00 0.00 0.00 73 1006.5
20260902032017 54 0.0 0.0 0.00 0.00 0.00 72 1006.4
20260902031016 54 0.0 0.0 0.00 0.00 0.00 72 1006.4
20260902030016 55 0.0 0.0 0.00 0.00 0.00 70 1006.3
20260902025016 55 0.0 0.0 0.00 0.00 0.00 69 1006.2
20260902024016 55 0.0 2.6 0.00 0.00 0.00 68 1006.3
20260902023016 55 0.0 0.0 0.00 0.00 0.00 69 1006.3
20260902022016 56 0.0 1.7 0.00 0.00 0.00 69 1006.3
20260902021036 56 135 0.9 2.6 0.00 0.00 0.00 67 1006.4
20260902020056 56 113 0.9 2.6 0.00 0.00 0.00 67 1006.4
20260902015036 57 0.0 0.9 0.00 0.00 0.00 67 1006.4
20260902014015 57 0.0 0.9 0.00 0.00 0.00 69 1006.3
20260902013016 57 0.0 1.7 0.00 0.00 0.00 67 1006.4
20260902012036 56 135 0.9 4.3 0.00 0.00 0.00 67 1006.4
20260902011015 56 135 0.9 4.3 0.00 0.00 0.00 69 1006.4
20260902010015 56 0.0 0.0 0.00 0.00 0.00 67 1006.5
20260902005015 56 0.0 1.7 0.00 0.00 0.00 68 1006.5
20260902004016 57 135 0.9 4.3 0.00 0.00 0.00 66 1006.5
20260902003016 57 135 0.9 3.5 0.00 0.00 0.00 66 1006.5
20260902002015 57 0.0 3.5 0.00 0.00 0.00 65 1006.5
20260902001015 57 0.0 0.0 0.00 0.00 0.00 62 1006.5
20260902000016 57 0.0 1.7 0.00 0.00 0.00 62 1006.5
20260901235016 56 248 0.9 2.6 0.00 0.00 0.00 62 1006.6
20260901234016 56 0.0 1.7 0.00 0.01 0.00 61 1006.7
20260901233015 56 0.0 2.6 0.00 0.01 0.00 64 1006.7
20260901232017 56 0.0 1.7 0.00 0.01 0.00 68 1006.6
20260901231037 55 0.0 0.0 0.00 0.01 0.00 68 1006.6
20260901230017 55 158 0.9 4.3 0.00 0.01 0.00 67 1006.7
20260901225037 55 0.0 1.7 0.00 0.01 0.00 66 1006.8
20260901224017 55 0.0 2.6 0.00 0.01 0.00 67 1006.9
20260901223017 55 158 0.9 3.5 0.00 0.01 0.00 66 1007.0
20260901222017 55 158 0.9 2.6 0.00 0.01 0.00 66 1007.0
20260901221017 54 0.0 0.0 0.00 0.01 0.00 69 1007.1
20260901220037 54 0.0 3.5 0.00 0.01 0.00 68 1007.2
20260901215017 54 0.0 2.6 0.00 0.01 0.00 67 1007.3
20260901214017 54 0.0 1.7 0.00 0.01 0.00 67 1007.4
20260901213017 54 0.0 1.7 0.00 0.01 0.00 68 1007.4
20260901212017 56 0.0 0.0 0.00 0.01 0.00 64 1007.5
20260901211017 56 0.0 0.9 0.00 0.01 0.00 65 1007.5
20260901210017 56 0.0 3.5 0.00 0.01 0.00 65 1007.6
20260901205017 55 0.0 2.6 0.00 0.01 0.00 65 1007.7
20260901204017 55 0.0 1.7 0.00 0.01 0.00 67 1007.7
20260901203038 54 0.0 0.0 0.00 0.01 0.00 67 1007.8
20260901202017 53 0.0 0.0 0.00 0.01 0.00 67 1007.8
20260901201016 53 0.0 0.0 0.00 0.01 0.00 65 1007.8
20260901200016 54 0.0 0.0 0.00 0.01 0.00 65 1007.8